| time (UTC) | temp F | wind direction | speed MPH | gust MPH | rain 1hr in | rain 24hr in | rain mn in | humidity % | barometer mb |
| 20260510084622 | 0 | 0.0 | 0.0 | 0.00 | 0.42 | 0.00 | 1013.4 | ||
| 20260510084116 | 0 | 0.0 | 0.0 | 0.00 | 0.42 | 0.00 | 1013.5 | ||
| 20260510083518 | 0 | 0.0 | 0.0 | 0.00 | 0.42 | 0.00 | 1013.5 | ||
| 20260510083018 | 0 | 0.0 | 0.0 | 0.00 | 0.42 | 0.00 | 1013.6 | ||
| 20260510082516 | 0 | 0.0 | 0.0 | 0.00 | 0.42 | 0.00 | 1013.6 | ||
| 20260510081924 | 0 | 0.0 | 0.0 | 0.00 | 0.42 | 0.00 | 1013.6 | ||
| 20260510081411 | 0 | 0.0 | 0.0 | 0.00 | 0.42 | 0.00 | 1013.6 | ||
| 20260510080816 | 0 | 0.0 | 0.0 | 0.00 | 0.42 | 0.00 | 1013.6 | ||
| 20260510080221 | 0 | 0.0 | 0.0 | 0.00 | 0.42 | 0.00 | 1013.4 | ||
| 20260510075218 | 0 | 0.0 | 0.0 | 0.00 | 0.42 | 0.00 | 1013.3 | ||
| 20260510074714 | 0 | 0.0 | 0.0 | 0.00 | 0.42 | 0.00 | 1013.3 | ||
| 20260510074213 | 0 | 161 | 0.0 | 0.0 | 0.00 | 0.42 | 0.00 | 1013.5 | |
| 20260510073712 | 50 | 161 | 0.0 | 0.0 | 0.00 | 0.42 | 0.00 | 97 | 1013.2 |
| 20260510073127 | 50 | 161 | 0.0 | 0.0 | 0.00 | 0.42 | 0.00 | 97 | 1013.1 |
| 20260510071615 | 50 | 162 | 0.0 | 0.0 | 0.00 | 0.42 | 0.00 | 97 | 1013.0 |
| 20260510071116 | 50 | 162 | 0.0 | 0.0 | 0.00 | 0.42 | 0.00 | 97 | 1013.1 |
| 20260510070116 | 50 | 162 | 0.0 | 0.0 | 0.00 | 0.42 | 0.00 | 97 | 1013.0 |
| 20260510065612 | 50 | 162 | 0.0 | 0.0 | 0.00 | 0.42 | 0.00 | 97 | 1013.1 |
| 20260510065111 | 50 | 162 | 0.0 | 0.0 | 0.00 | 0.42 | 0.00 | 97 | 1013.1 |
| 20260510064611 | 50 | 162 | 0.0 | 0.0 | 0.00 | 0.42 | 0.00 | 97 | 1013.1 |
| 20260510064111 | 50 | 162 | 0.0 | 0.0 | 0.00 | 0.42 | 0.00 | 97 | 1013.2 |
| 20260510063611 | 50 | 162 | 0.0 | 0.0 | 0.00 | 0.42 | 0.00 | 97 | 1013.3 |
| 20260510063110 | 50 | 162 | 0.0 | 0.0 | 0.00 | 0.42 | 0.00 | 97 | 1013.2 |
| 20260510062612 | 50 | 162 | 0.0 | 0.0 | 0.00 | 0.42 | 0.00 | 97 | 1013.2 |
| 20260510061609 | 50 | 162 | 0.0 | 0.0 | 0.00 | 0.42 | 0.00 | 97 | 1013.2 |
| 20260510061108 | 50 | 162 | 0.0 | 0.0 | 0.00 | 0.42 | 0.00 | 97 | 1013.1 |
| 20260510060608 | 50 | 162 | 0.0 | 0.0 | 0.00 | 0.42 | 0.00 | 97 | 1013.1 |
| 20260510055600 | 50 | 162 | 0.0 | 0.0 | 0.00 | 0.42 | 0.00 | 97 | 1012.8 |
| 20260510054043 | 50 | 167 | 0.0 | 0.0 | 0.00 | 0.42 | 0.00 | 97 | 1012.9 |
| 20260510053537 | 50 | 167 | 0.0 | 0.0 | 0.00 | 0.42 | 0.00 | 97 | 1012.9 |
| 20260510053031 | 50 | 167 | 0.0 | 0.0 | 0.00 | 0.42 | 0.00 | 97 | 1012.9 |
| 20260510052524 | 50 | 167 | 0.0 | 0.0 | 0.00 | 0.42 | 0.00 | 97 | 1012.9 |
| 20260510052019 | 50 | 167 | 0.0 | 0.0 | 0.00 | 0.42 | 0.00 | 97 | 1013.1 |
| 20260510051019 | 50 | 167 | 0.0 | 0.0 | 0.00 | 0.42 | 0.00 | 97 | 1012.9 |
| 20260510050520 | 50 | 167 | 0.0 | 0.0 | 0.00 | 0.42 | 0.00 | 97 | 1013.0 |
| 20260510050018 | 50 | 167 | 0.0 | 0.0 | 0.00 | 0.42 | 0.00 | 97 | 1013.0 |
| 20260510045514 | 50 | 167 | 0.0 | 0.0 | 0.00 | 0.42 | 0.00 | 97 | 1013.0 |
| 20260510045014 | 50 | 167 | 0.0 | 0.0 | 0.00 | 0.42 | 0.00 | 97 | 1013.0 |
| 20260510044516 | 50 | 167 | 0.0 | 0.0 | 0.00 | 0.42 | 0.00 | 97 | 1013.0 |
| 20260510044012 | 50 | 167 | 0.0 | 0.0 | 0.00 | 0.42 | 0.00 | 97 | 1013.0 |
| 20260510043513 | 50 | 167 | 0.0 | 0.0 | 0.00 | 0.42 | 0.00 | 97 | 1013.1 |
| 20260510043013 | 50 | 167 | 0.0 | 0.0 | 0.00 | 0.42 | 0.00 | 97 | 1013.1 |
| 20260510042511 | 51 | 139 | 0.0 | 0.0 | 0.00 | 0.42 | 0.00 | 97 | 1013.0 |
| 20260510042009 | 51 | 139 | 0.0 | 0.0 | 0.00 | 0.42 | 0.00 | 97 | 1012.9 |
| 20260510041507 | 51 | 139 | 0.0 | 0.0 | 0.00 | 0.42 | 0.00 | 97 | 1012.9 |
| 20260510041004 | 51 | 139 | 0.0 | 0.0 | 0.00 | 0.42 | 0.00 | 97 | 1012.9 |
| 20260510040502 | 51 | 139 | 0.0 | 0.0 | 0.00 | 0.42 | 0.00 | 97 | 1012.9 |
| 20260510040000 | 51 | 127 | 0.0 | 0.0 | 0.00 | 0.42 | 0.42 | 97 | 1012.9 |
| 20260510035458 | 51 | 127 | 0.0 | 0.0 | 0.00 | 0.42 | 0.42 | 97 | 1012.8 |
| 20260510034959 | 51 | 127 | 0.0 | 0.0 | 0.00 | 0.42 | 0.42 | 97 | 1012.7 |
| 20260510034457 | 51 | 127 | 0.0 | 0.0 | 0.00 | 0.42 | 0.42 | 97 | 1012.7 |
| 20260510033955 | 51 | 127 | 0.0 | 0.0 | 0.00 | 0.42 | 0.42 | 96 | 1012.6 |
| 20260510032948 | 51 | 127 | 0.0 | 0.0 | 0.00 | 0.42 | 0.42 | 97 | 1012.9 |
| 20260510032445 | 51 | 127 | 0.0 | 0.0 | 0.00 | 0.42 | 0.42 | 97 | 1012.8 |
| 20260510031941 | 51 | 127 | 0.0 | 0.0 | 0.00 | 0.42 | 0.42 | 96 | 1012.9 |
| 20260510031441 | 51 | 127 | 0.0 | 0.0 | 0.00 | 0.42 | 0.42 | 96 | 1013.0 |
| 20260510030943 | 51 | 170 | 0.0 | 0.0 | 0.00 | 0.42 | 0.42 | 96 | 1013.0 |
| 20260510025943 | 51 | 170 | 0.0 | 0.0 | 0.00 | 0.42 | 0.42 | 97 | 1013.0 |
| 20260510025443 | 51 | 170 | 0.0 | 0.0 | 0.00 | 0.42 | 0.42 | 97 | 1013.1 |
| 20260510024941 | 51 | 170 | 0.0 | 0.0 | 0.00 | 0.42 | 0.42 | 96 | 1013.2 |
| 20260510024442 | 51 | 217 | 0.0 | 0.0 | 0.00 | 0.42 | 0.42 | 96 | 1013.1 |
| 20260510023942 | 51 | 240 | 0.0 | 0.0 | 0.00 | 0.42 | 0.42 | 97 | 1013.1 |
| 20260510022941 | 51 | 240 | 0.0 | 0.0 | 0.00 | 0.42 | 0.42 | 97 | 1013.1 |
| 20260510022443 | 51 | 240 | 0.0 | 0.0 | 0.00 | 0.42 | 0.42 | 97 | 1013.1 |
| 20260510020943 | 51 | 169 | 0.0 | 0.0 | 0.00 | 0.42 | 0.42 | 96 | 1013.0 |
| 20260510020443 | 51 | 169 | 0.0 | 0.0 | 0.00 | 0.42 | 0.42 | 96 | 1012.8 |
| 20260510015442 | 51 | 169 | 0.0 | 0.0 | 0.00 | 0.42 | 0.42 | 97 | 1012.9 |
| 20260510014441 | 51 | 169 | 0.0 | 0.0 | 0.00 | 0.42 | 0.42 | 96 | 1012.9 |
| 20260510013942 | 51 | 169 | 0.0 | 0.0 | 0.00 | 0.42 | 0.42 | 96 | 1012.8 |
| 20260510013441 | 51 | 169 | 0.0 | 0.0 | 0.00 | 0.42 | 0.42 | 96 | 1012.8 |
| 20260510012941 | 51 | 169 | 0.0 | 0.0 | 0.00 | 0.42 | 0.42 | 96 | 1012.8 |
| 20260510012442 | 51 | 169 | 0.0 | 0.0 | 0.00 | 0.42 | 0.42 | 96 | 1012.7 |
| 20260510011441 | 51 | 169 | 0.0 | 0.0 | 0.00 | 0.42 | 0.42 | 96 | 1012.8 |
| 20260510010936 | 51 | 169 | 0.0 | 0.0 | 0.00 | 0.42 | 0.42 | 96 | 1012.8 |
| 20260510005936 | 52 | 169 | 0.0 | 0.0 | 0.00 | 0.42 | 0.42 | 96 | 1012.4 |
| 20260510005437 | 52 | 169 | 0.0 | 0.0 | 0.00 | 0.42 | 0.42 | 96 | 1012.4 |
| 20260510003924 | 52 | 169 | 0.0 | 0.0 | 0.00 | 0.42 | 0.42 | 96 | 1012.3 |
| 20260510003418 | 52 | 169 | 0.0 | 0.0 | 0.00 | 0.42 | 0.42 | 96 | 1012.3 |
| 20260510002912 | 52 | 169 | 0.0 | 0.0 | 0.00 | 0.42 | 0.42 | 96 | 1012.3 |
| 20260510001901 | 52 | 169 | 0.0 | 0.0 | 0.00 | 0.42 | 0.42 | 96 | 1012.2 |
| 20260510001354 | 52 | 169 | 0.0 | 0.0 | 0.00 | 0.42 | 0.42 | 96 | 1012.1 |
| 20260510000342 | 52 | 169 | 0.0 | 0.0 | 0.00 | 0.42 | 0.42 | 96 | 1011.9 |
| 20260509235836 | 52 | 169 | 0.0 | 0.0 | 0.00 | 0.42 | 0.42 | 95 | 1011.9 |
| 20260509235330 | 52 | 169 | 0.0 | 0.0 | 0.00 | 0.42 | 0.42 | 95 | 1012.0 |
| 20260509234823 | 53 | 130 | 0.0 | 0.0 | 0.00 | 0.42 | 0.42 | 95 | 1012.1 |
| 20260509234318 | 53 | 214 | 0.0 | 0.0 | 0.00 | 0.42 | 0.42 | 96 | 1012.1 |
| 20260509233808 | 53 | 214 | 0.0 | 0.0 | 0.00 | 0.42 | 0.42 | 96 | 1012.1 |
| 20260509233302 | 53 | 214 | 0.0 | 0.0 | 0.00 | 0.42 | 0.42 | 96 | 1012.1 |
| 20260509232755 | 53 | 214 | 0.0 | 0.0 | 0.00 | 0.42 | 0.42 | 96 | 1012.1 |
| 20260509232250 | 53 | 252 | 0.0 | 0.0 | 0.01 | 0.42 | 0.42 | 96 | 1012.3 |
| 20260509231744 | 53 | 236 | 0.0 | 0.0 | 0.01 | 0.42 | 0.42 | 96 | 1012.4 |
| 20260509231238 | 53 | 146 | 0.0 | 0.0 | 0.01 | 0.42 | 0.42 | 95 | 1012.2 |
| 20260509230733 | 52 | 146 | 0.0 | 0.0 | 0.03 | 0.42 | 0.42 | 95 | 1012.2 |
| 20260509230226 | 52 | 165 | 0.0 | 0.0 | 0.05 | 0.42 | 0.42 | 95 | 1012.4 |
| 20260509225720 | 52 | 165 | 0.0 | 0.0 | 0.06 | 0.42 | 0.42 | 95 | 1012.4 |
| 20260509225214 | 52 | 165 | 0.0 | 0.0 | 0.08 | 0.42 | 0.42 | 95 | 1012.5 |
| 20260509224708 | 52 | 165 | 0.0 | 0.0 | 0.08 | 0.42 | 0.42 | 95 | 1012.5 |
| 20260509224202 | 52 | 165 | 0.0 | 0.0 | 0.11 | 0.42 | 0.42 | 95 | 1012.4 |
| 20260509223656 | 52 | 165 | 0.0 | 0.0 | 0.13 | 0.42 | 0.42 | 95 | 1012.4 |
| 20260509223150 | 52 | 165 | 0.0 | 0.0 | 0.15 | 0.42 | 0.42 | 95 | 1012.5 |
| 20260509222644 | 52 | 203 | 0.0 | 0.0 | 0.17 | 0.42 | 0.42 | 95 | 1012.6 |
| 20260509222139 | 52 | 203 | 0.0 | 0.0 | 0.18 | 0.41 | 0.41 | 95 | 1012.7 |
| 20260509221632 | 52 | 203 | 0.0 | 0.0 | 0.19 | 0.41 | 0.41 | 95 | 1012.7 |
| 20260509221125 | 52 | 203 | 0.0 | 0.0 | 0.19 | 0.40 | 0.41 | 95 | 1012.7 |
| 20260509220114 | 52 | 205 | 0.0 | 0.0 | 0.19 | 0.37 | 0.37 | 95 | 1012.9 |
| 20260509215614 | 52 | 205 | 0.0 | 0.0 | 0.17 | 0.35 | 0.36 | 95 | 1012.9 |
| 20260509215114 | 52 | 205 | 0.0 | 0.0 | 0.17 | 0.34 | 0.34 | 94 | 1013.0 |
| 20260509214111 | 53 | 205 | 0.0 | 0.0 | 0.15 | 0.30 | 0.31 | 94 | 1013.0 |
| 20260509213609 | 53 | 154 | 0.0 | 0.0 | 0.14 | 0.29 | 0.29 | 94 | 1012.9 |
| 20260509213108 | 53 | 155 | 0.0 | 0.0 | 0.12 | 0.27 | 0.27 | 94 | 1013.2 |
| 20260509212608 | 53 | 132 | 0.0 | 0.0 | 0.09 | 0.24 | 0.25 | 94 | 1013.2 |
| 20260509212105 | 53 | 132 | 0.0 | 0.0 | 0.08 | 0.23 | 0.23 | 94 | 1013.2 |
| 20260509211606 | 53 | 132 | 0.0 | 0.0 | 0.07 | 0.22 | 0.22 | 94 | 1013.1 |
| 20260509211106 | 54 | 132 | 0.0 | 0.0 | 0.06 | 0.21 | 0.21 | 94 | 1013.2 |
| 20260509210605 | 54 | 132 | 0.0 | 0.0 | 0.04 | 0.19 | 0.19 | 94 | 1013.3 |
| 20260509210107 | 54 | 170 | 0.0 | 0.0 | 0.04 | 0.18 | 0.18 | 94 | 1013.2 |
| 20260509205604 | 54 | 169 | 0.0 | 0.0 | 0.04 | 0.18 | 0.18 | 94 | 1013.1 |
| 20260509204605 | 54 | 170 | 0.0 | 0.0 | 0.03 | 0.16 | 0.16 | 94 | 1013.2 |
| 20260509204104 | 54 | 170 | 0.0 | 0.0 | 0.03 | 0.15 | 0.15 | 94 | 1013.0 |
| 20260509203604 | 55 | 101 | 0.0 | 0.0 | 0.03 | 0.15 | 0.15 | 94 | 1013.0 |
| 20260509203059 | 55 | 101 | 0.0 | 0.0 | 0.04 | 0.15 | 0.15 | 94 | 1012.8 |
| 20260509202058 | 55 | 101 | 0.0 | 0.0 | 0.06 | 0.15 | 0.15 | 93 | 1013.0 |
| 20260509201556 | 55 | 101 | 0.0 | 0.0 | 0.09 | 0.15 | 0.15 | 94 | 1012.9 |
| 20260509201054 | 55 | 101 | 0.0 | 0.0 | 0.11 | 0.15 | 0.15 | 93 | 1012.8 |
| 20260509200555 | 55 | 101 | 0.0 | 0.0 | 0.12 | 0.15 | 0.15 | 93 | 1012.9 |
| 20260509200055 | 55 | 101 | 0.0 | 0.0 | 0.12 | 0.14 | 0.14 | 93 | 1013.0 |
| 20260509195553 | 55 | 101 | 0.0 | 0.0 | 0.12 | 0.14 | 0.14 | 93 | 1013.2 |
| 20260509195052 | 55 | 101 | 0.0 | 0.0 | 0.12 | 0.13 | 0.13 | 93 | 1013.1 |
| 20260509194554 | 55 | 101 | 0.0 | 0.0 | 0.13 | 0.13 | 0.13 | 92 | 1013.2 |
| 20260509194054 | 55 | 101 | 0.0 | 1.0 | 0.12 | 0.12 | 0.12 | 92 | 1013.2 |
| 20260509193550 | 55 | 101 | 0.0 | 1.0 | 0.12 | 0.12 | 0.12 | 91 | 1013.2 |
| 20260509193048 | 55 | 120 | 0.0 | 0.0 | 0.11 | 0.11 | 0.12 | 91 | 1013.3 |
| 20260509192549 | 56 | 101 | 0.0 | 0.0 | 0.10 | 0.10 | 0.11 | 91 | 1013.5 |
| 20260509192049 | 56 | 91 | 0.0 | 0.0 | 0.09 | 0.09 | 0.09 | 90 | 1013.4 |
| 20260509191550 | 56 | 193 | 0.0 | 0.0 | 0.06 | 0.06 | 0.06 | 90 | 1013.5 |
| 20260509191049 | 57 | 193 | 0.0 | 0.0 | 0.04 | 0.04 | 0.04 | 90 | 1013.6 |
| 20260509190550 | 57 | 193 | 0.0 | 0.0 | 0.03 | 0.03 | 0.03 | 89 | 1013.4 |
| 20260509190049 | 57 | 193 | 0.0 | 0.0 | 0.02 | 0.02 | 0.02 | 88 | 1013.3 |
| 20260509185049 | 57 | 193 | 0.0 | 0.0 | 0.01 | 0.01 | 0.01 | 86 | 1013.3 |
| 20260509184549 | 58 | 193 | 0.0 | 0.0 | 0.00 | 0.01 | 0.00 | 84 | 1013.2 |
| 20260509184047 | 58 | 193 | 0.0 | 0.0 | 0.00 | 0.01 | 0.00 | 84 | 1013.1 |
| 20260509183547 | 58 | 193 | 0.0 | 0.0 | 0.00 | 0.01 | 0.00 | 82 | 1013.0 |
| 20260509183046 | 58 | 193 | 0.0 | 0.0 | 0.00 | 0.01 | 0.00 | 80 | 1013.0 |
| 20260509182544 | 59 | 193 | 0.0 | 0.0 | 0.00 | 0.01 | 0.00 | 80 | 1013.0 |
| 20260509182046 | 59 | 193 | 0.0 | 0.0 | 0.00 | 0.01 | 0.00 | 78 | 1012.8 |
| 20260509181548 | 59 | 38 | 0.0 | 0.0 | 0.00 | 0.01 | 0.00 | 77 | 1012.7 |
| 20260509181044 | 59 | 161 | 0.0 | 0.0 | 0.00 | 0.01 | 0.00 | 78 | 1012.6 |
| 20260509180542 | 59 | 124 | 0.0 | 0.0 | 0.00 | 0.01 | 0.00 | 78 | 1012.8 |
| 20260509180041 | 59 | 124 | 0.0 | 0.0 | 0.00 | 0.01 | 0.00 | 77 | 1012.8 |
| 20260509175540 | 59 | 170 | 0.0 | 0.0 | 0.00 | 0.01 | 0.00 | 80 | 1012.8 |
| 20260509175040 | 59 | 170 | 0.0 | 0.0 | 0.00 | 0.01 | 0.00 | 80 | 1012.8 |
| 20260509174033 | 58 | 172 | 0.0 | 0.0 | 0.00 | 0.01 | 0.00 | 81 | 1012.7 |
| 20260509173527 | 58 | 172 | 0.0 | 0.0 | 0.00 | 0.01 | 0.00 | 80 | 1012.9 |
| 20260509173020 | 58 | 172 | 0.0 | 0.0 | 0.00 | 0.01 | 0.00 | 80 | 1012.9 |
| 20260509172516 | 58 | 172 | 0.0 | 0.0 | 0.00 | 0.01 | 0.00 | 80 | 1012.9 |
| 20260509172010 | 58 | 326 | 0.0 | 0.0 | 0.00 | 0.01 | 0.00 | 80 | 1012.9 |
| 20260509170957 | 58 | 126 | 0.0 | 0.0 | 0.00 | 0.01 | 0.00 | 82 | 1012.9 |
| 20260509170451 | 58 | 200 | 0.0 | 0.0 | 0.00 | 0.01 | 0.00 | 83 | 1012.9 |
| 20260509165945 | 57 | 138 | 0.0 | 0.0 | 0.00 | 0.01 | 0.00 | 85 | 1013.2 |
| 20260509165439 | 56 | 126 | 0.0 | 0.0 | 0.00 | 0.01 | 0.00 | 86 | 1013.2 |
| 20260509164932 | 56 | 139 | 0.0 | 0.0 | 0.00 | 0.01 | 0.00 | 86 | 1013.4 |
| 20260509163921 | 55 | 241 | 0.0 | 0.0 | 0.00 | 0.01 | 0.00 | 87 | 1013.7 |
| 20260509162909 | 55 | 214 | 0.0 | 0.0 | 0.00 | 0.01 | 0.00 | 89 | 1013.8 |
| 20260509162403 | 55 | 236 | 0.0 | 0.0 | 0.00 | 0.01 | 0.00 | 88 | 1013.8 |
| 20260509161858 | 54 | 244 | 0.0 | 0.0 | 0.00 | 0.01 | 0.00 | 89 | 1013.8 |
| 20260509161354 | 54 | 244 | 0.0 | 0.0 | 0.00 | 0.01 | 0.00 | 89 | 1013.9 |
| 20260509160854 | 54 | 244 | 0.0 | 0.0 | 0.00 | 0.01 | 0.00 | 89 | 1014.0 |
| 20260509155855 | 54 | 121 | 0.0 | 0.0 | 0.00 | 0.01 | 0.00 | 89 | 1013.8 |
| 20260509155353 | 54 | 121 | 0.0 | 0.0 | 0.00 | 0.01 | 0.00 | 89 | 1013.9 |
| 20260509154851 | 54 | 120 | 0.0 | 0.0 | 0.00 | 0.01 | 0.00 | 89 | 1014.1 |
| 20260509154348 | 54 | 218 | 0.0 | 0.0 | 0.00 | 0.01 | 0.00 | 89 | 1014.2 |
| 20260509153847 | 54 | 218 | 0.0 | 0.0 | 0.00 | 0.01 | 0.00 | 89 | 1014.2 |
| 20260509153344 | 54 | 115 | 0.0 | 0.0 | 0.00 | 0.01 | 0.00 | 89 | 1013.9 |
| 20260509152842 | 54 | 154 | 0.0 | 0.0 | 0.00 | 0.01 | 0.00 | 89 | 1014.1 |
| 20260509152340 | 54 | 136 | 0.0 | 0.0 | 0.00 | 0.01 | 0.00 | 89 | 1014.0 |
| 20260509151839 | 54 | 240 | 0.0 | 0.0 | 0.00 | 0.01 | 0.00 | 89 | 1014.1 |
| 20260509151336 | 54 | 139 | 0.0 | 0.0 | 0.00 | 0.01 | 0.00 | 89 | 1014.2 |
| 20260509150334 | 53 | 163 | 0.0 | 0.0 | 0.00 | 0.01 | 0.00 | 90 | 1014.0 |
| 20260509145835 | 53 | 126 | 0.0 | 0.0 | 0.00 | 0.01 | 0.00 | 90 | 1014.1 |
| 20260509145333 | 53 | 158 | 0.0 | 1.0 | 0.00 | 0.01 | 0.00 | 90 | 1014.1 |
| 20260509144831 | 53 | 134 | 0.0 | 1.0 | 0.00 | 0.01 | 0.00 | 90 | 1014.2 |
| 20260509144330 | 53 | 221 | 0.0 | 0.0 | 0.00 | 0.01 | 0.00 | 90 | 1014.1 |
| 20260509143833 | 52 | 115 | 0.0 | 0.0 | 0.00 | 0.01 | 0.00 | 91 | 1014.0 |
| 20260509143330 | 52 | 231 | 0.0 | 0.0 | 0.00 | 0.01 | 0.00 | 91 | 1014.0 |
| 20260509142825 | 52 | 200 | 0.0 | 0.0 | 0.00 | 0.01 | 0.00 | 92 | 1013.9 |
| 20260509142318 | 51 | 122 | 0.0 | 0.0 | 0.00 | 0.01 | 0.00 | 92 | 1013.8 |
| 20260509141818 | 51 | 139 | 0.0 | 0.0 | 0.00 | 0.01 | 0.00 | 93 | 1013.6 |
| 20260509140819 | 0 | 0.0 | 0.0 | 0.00 | 0.01 | 0.00 | 1013.8 | ||
| 20260509140319 | 0 | 0.0 | 0.0 | 0.00 | 0.01 | 0.00 | 1014.2 | ||
| 20260509135812 | 0 | 0.0 | 0.0 | 0.00 | 0.01 | 0.00 | 1014.3 | ||
| 20260509135246 | 0 | 0.0 | 0.0 | 0.00 | 0.01 | 0.00 | 1014.3 | ||
| 20260509134713 | 0 | 0.0 | 0.0 | 0.00 | 0.01 | 0.00 | 1014.0 | ||
| 20260509134209 | 0 | 0.0 | 0.0 | 0.00 | 0.01 | 0.00 | 1014.1 | ||
| 20260509133616 | 0 | 0.0 | 0.0 | 0.00 | 0.01 | 0.00 | 1014.2 | ||
| 20260509132527 | 0 | 0.0 | 0.0 | 0.00 | 0.01 | 0.00 | 1014.2 | ||
| 20260509132020 | 0 | 0.0 | 0.0 | 0.00 | 0.01 | 0.00 | 1014.2 | ||
| 20260509131521 | 0 | 0.0 | 0.0 | 0.00 | 0.01 | 0.00 | 1014.2 | ||
| 20260509131019 | 0 | 0.0 | 0.0 | 0.00 | 0.01 | 0.00 | 1014.3 | ||
| 20260509130518 | 0 | 0.0 | 0.0 | 0.00 | 0.01 | 0.00 | 1014.4 | ||
| 20260509125925 | 0 | 0.0 | 0.0 | 0.00 | 0.01 | 0.00 | 1014.4 | ||
| 20260509125413 | 0 | 0.0 | 0.0 | 0.00 | 0.01 | 0.00 | 1014.2 | ||
| 20260509124912 | 0 | 0.0 | 0.0 | 0.00 | 0.01 | 0.00 | 1014.1 | ||
| 20260509124321 | 0 | 0.0 | 0.0 | 0.00 | 0.01 | 0.00 | 1014.3 | ||
| 20260509123744 | 0 | 0.0 | 0.0 | 0.00 | 0.01 | 0.00 | 1014.1 | ||
| 20260509123216 | 0 | 0.0 | 0.0 | 0.00 | 0.01 | 0.00 | 1014.3 | ||
| 20260509122714 | 0 | 0.0 | 0.0 | 0.00 | 0.01 | 0.00 | 1014.5 | ||
| 20260509121622 | 0 | 0.0 | 0.0 | 0.00 | 0.01 | 0.00 | 1014.6 | ||
| 20260509121109 | 0 | 0.0 | 0.0 | 0.00 | 0.01 | 0.00 | 1014.4 | ||
| 20260509120603 | 0 | 0.0 | 0.0 | 0.00 | 0.01 | 0.00 | 1014.6 | ||
| 20260509120016 | 0 | 0.0 | 0.0 | 0.00 | 0.01 | 0.00 | 1014.6 | ||
| 20260509115517 | 0 | 0.0 | 0.0 | 0.00 | 0.01 | 0.00 | 1014.7 | ||
| 20260509114927 | 0 | 0.0 | 0.0 | 0.00 | 0.01 | 0.00 | 1014.6 | ||
| 20260509114424 | 0 | 0.0 | 0.0 | 0.00 | 0.01 | 0.00 | 1014.5 | ||
| 20260509113916 | 0 | 0.0 | 0.0 | 0.00 | 0.01 | 0.00 | 1014.4 | ||
| 20260509113320 | 0 | 0.0 | 0.0 | 0.00 | 0.01 | 0.00 | 1014.5 | ||
| 20260509112821 | 0 | 0.0 | 0.0 | 0.00 | 0.01 | 0.00 | 1014.7 | ||
| 20260509112228 | 0 | 0.0 | 0.0 | 0.00 | 0.01 | 0.00 | 1014.7 | ||
| 20260509111719 | 0 | 0.0 | 0.0 | 0.00 | 0.01 | 0.00 | 1014.6 | ||
| 20260509111216 | 0 | 0.0 | 0.0 | 0.00 | 0.01 | 0.00 | 1014.7 | ||
| 20260509110715 | 0 | 0.0 | 0.0 | 0.00 | 0.01 | 0.00 | 1014.6 | ||
| 20260509110128 | 0 | 0.0 | 0.0 | 0.00 | 0.01 | 0.00 | 1014.5 | ||
| 20260509105628 | 0 | 0.0 | 0.0 | 0.00 | 0.01 | 0.00 | 1014.5 | ||
| 20260509105119 | 0 | 0.0 | 0.0 | 0.00 | 0.01 | 0.00 | 1014.5 | ||
| 20260509104116 | 0 | 0.0 | 0.0 | 0.00 | 0.01 | 0.00 | 1014.4 | ||
| 20260509103525 | 0 | 0.0 | 0.0 | 0.00 | 0.01 | 0.00 | 1014.4 | ||
| 20260509103024 | 0 | 0.0 | 0.0 | 0.00 | 0.01 | 0.00 | 1014.3 | ||
| 20260509102519 | 0 | 0.0 | 0.0 | 0.00 | 0.01 | 0.00 | 1014.4 | ||
| 20260509101926 | 0 | 0.0 | 0.0 | 0.00 | 0.01 | 0.00 | 1014.4 | ||
| 20260509101422 | 0 | 0.0 | 0.0 | 0.00 | 0.01 | 0.00 | 1014.3 | ||
| 20260509100920 | 0 | 0.0 | 0.0 | 0.00 | 0.01 | 0.00 | 1014.3 | ||
| 20260509095820 | 0 | 0.0 | 0.0 | 0.00 | 0.01 | 0.00 | 1014.4 | ||
| 20260509095317 | 0 | 0.0 | 0.0 | 0.00 | 0.01 | 0.00 | 1014.3 | ||
| 20260509094811 | 0 | 0.0 | 0.0 | 0.00 | 0.01 | 0.00 | 1014.2 | ||
| 20260509094228 | 0 | 0.0 | 0.0 | 0.00 | 0.01 | 0.00 | 1014.2 | ||
| 20260509093718 | 0 | 0.0 | 0.0 | 0.00 | 0.01 | 0.00 | 1014.3 | ||
| 20260509093215 | 0 | 0.0 | 0.0 | 0.00 | 0.01 | 0.00 | 1014.3 | ||
| 20260509092128 | 0 | 0.0 | 0.0 | 0.00 | 0.01 | 0.00 | 1014.3 | ||
| 20260509091627 | 0 | 0.0 | 0.0 | 0.00 | 0.01 | 0.00 | 1014.2 | ||
| 20260509091114 | 0 | 0.0 | 0.0 | 0.00 | 0.01 | 0.00 | 1014.3 | ||
| 20260509090518 | 0 | 0.0 | 0.0 | 0.00 | 0.01 | 0.00 | 1014.3 |